SENTINEL-6A

Last updated on Sun Dec 14 2025 00:02:33 GMT+0000 (Coordinated Universal Time)

1 46984U 20086A 25347.18669786 -.00000033 00000+0 12345-3 0 9993 2 46984 66.0389 161.3797 0007743 269.2599 90.7529 12.80930608236507
UTC large
Height (km)
Speed (km/s)
/
Latitude / Longitude
Inclination (degrees)
Orbital Period (minutes)
Azimuth
Elevation
Range (km)
Doppler Factor

Next 0 passes for location: London (51.5072 / 0.1276)

Sorry there are no passes over London.